Flag for Germany Weather past 2 weeks in Bünde, North Rhine-Westphalia, Germany

Now
61 °F

Scattered clouds.


Feels Like: 61 °F
Forecast: 51 / 63 °F
Wind: 13 mph from West

Location: Bueckeburg

Current Time: Jul 8, 2015 at 7:17:00 AM

Latest Report: Jul 8, 2015 at 6:20 AM


Visibility: N/A

Pressure: 29.71 "Hg

Humidity: 83%

Dew point: 55 °F

Location of BündeLocation

Historic Weather in Bünde — Graph

°F

Bünde temperature yesterday

Maximum temperature yesterday: 84 °F (at 3:20 PM)
Minimum temperature yesterday: 57 °F (at 4:20 AM)
Average temperature yesterday: 71 °F

Past Weeks' High & Low Weather Summary

 TemperatureHumidityPressure
High97 °F (Jul 4, 3:20 PM)100% (Jun 27, 6:01 AM)30.27 "Hg (Jun 27, 6:01 AM)
Low50 °F (Jun 23, 5:20 AM)34% (Jul 2, 5:20 PM)29.65 "Hg (Jul 7, 8:20 PM)
Average69 °F67%30.07 "Hg
* Reported Jun 23 5:20 AM — Jul 8 5:20 AM, Bünde, Weather by CustomWeather, © 2015

Note: Actual official high and low records may vary slightly from our data, if they occured in-between our weather recording intervals... More about our weather records

Advertising

Bünde weather history for previous 24 hours

 ConditionsComfort  
Time TempWeatherWind HumidityBarometerVisibility
5:20 AM
Wed, Jul 8
63 °FPassing clouds.10 mph77%29.71 "HgN/A
4:20 AM64 °FPassing clouds.16 mph73%29.71 "HgN/A
3:20 AM64 °FSprinkles. Passing clouds.9 mph78%29.68 "HgN/A
2:20 AM64 °FPartly cloudy.7 mph78%29.68 "HgN/A
1:20 AM64 °FPartly cloudy.7 mph78%29.65 "HgN/A
12:20 AM66 °FPassing clouds.7 mph73%29.68 "HgN/A
11:20 PM
Tue, Jul 7
68 °FPassing clouds.9 mph73%29.68 "HgN/A
10:20 PM70 °FPartly sunny.7 mph78%29.68 "HgN/A
9:20 PM72 °FBroken clouds.9 mph83%29.65 "HgN/A
8:20 PM72 °FBroken clouds.8 mph83%29.65 "HgN/A
7:20 PM72 °FBroken clouds.5 mph88%29.68 "HgN/A
6:20 PM77 °FThunderstorms. Broken clouds.2 mph65%29.71 "Hg3 mi
5:50 PM79 °FThundershowers. Partly sunny.3 mph58%29.68 "HgN/A
5:20 PM81 °FPartly sunny.3 mph54%29.71 "HgN/A
4:20 PM84 °FBroken clouds.2 mph40%29.74 "HgN/A
3:20 PM84 °FPartly sunny.6 mph43%29.77 "HgN/A
2:20 PM82 °FBroken clouds.5 mph42%29.80 "HgN/A
1:20 PM82 °FPartly sunny.7 mph42%29.83 "HgN/A
12:20 PM81 °FPassing clouds.8 mph45%29.86 "HgN/A
11:20 AM77 °FPassing clouds.6 mph51%29.89 "HgN/A
10:20 AM75 °FPassing clouds.8 mph54%29.89 "HgN/A
9:20 AM72 °FPassing clouds.7 mph57%29.92 "HgN/A
8:20 AM70 °FMild.9 mph57%29.95 "HgN/A
7:20 AM66 °FMild.6 mph64%29.98 "HgN/A
Weather by CustomWeather, © 2015

See weather overviewHow to use our weather pages